Location: UBC Liquid-Mirror Observatory
(49.2876°N, 122.5728°W)
Time: 03:55:41
(UTC-07:00)

Daily predictions for brighter satellites

Satellite Brightness Start Highest point End
(mag) Time Altitude Azimuth Time Altitude Azimuth Time Altitude Azimuth
SL-27 R/B 3.7 00:02:42 10° NW 00:05:59 32° WSW 00:07:28 23° SSW
Cosmos 1500 Rocket 4.3 00:04:31 26° SE 00:06:19 39° E 00:10:21 10° NNE
SL-19 R/B 4.4 00:06:08 10° NNE 00:11:33 55° ESE 00:14:24 26° S
Cosmos 1190 Rocket 4.1 00:09:49 25° S 00:12:46 61° ESE 00:17:55 10° NNE
Cosmos 1151 Rocket 2.9 00:10:13 10° N 00:14:32 83° E 00:16:30 31° SSE
Cosmos 1626 4.2 00:15:45 10° SW 00:18:46 23° WNW 00:21:48 10° NNW
Mayak -0.8 00:15:51 10° NNE 00:19:54 48° E 00:21:27 31° SSE
Lacrosse 5 3.6 00:15:32 10° WNW 00:20:12 35° N 00:24:52 10° ENE
NOSS 8 (E) 4.4 00:19:32 42° S 00:20:18 55° SE 00:23:39 10° NE
Cosmos 2369 Rocket 3.4 00:18:27 21° SE 00:20:35 27° ESE 00:25:17 10° NE
NOSS 2-2 (D) 4.0 00:18:08 10° WSW 00:22:03 59° NW 00:26:48 10° NE
ALOS 2 2.6 00:21:19 30° SSE 00:23:28 74° ENE 00:27:51 10° N
CZ-4 R/B 3.8 00:19:11 10° NNE 00:24:01 78° ESE 00:26:31 28° S
Cosmos 1408 Rocket 4.0 00:21:48 22° SSW 00:24:34 58° WNW 00:29:01 10° N
ATLAS 5 CENTAUR R/B 2.4 00:20:42 10° WSW 00:25:15 58° NW 00:30:21 10° NE
Cosmos 1703 4.3 00:23:02 18° SW 00:25:32 39° WNW 00:29:14 10° N
Cosmos 1766 Rocket 4.4 00:23:14 18° SW 00:26:18 47° WNW 00:30:39 10° N
Cosmos 1809 Rocket 4.5 00:21:36 10° NNW 00:27:40 74° W 00:31:22 25° S
Cosmos 1515 Rocket 3.7 00:26:42 10° NNW 00:31:07 69° W 00:33:09 31° S
Cosmos 371 Rocket 3.3 00:26:21 10° NNW 00:31:13 77° WSW 00:33:36 30° SSE
Cosmos 2058 3.2 00:30:17 26° SSW 00:32:29 60° WNW 00:36:35 10° N
Nadezhda 1 Rocket 4.0 00:28:39 24° S 00:32:44 86° E 00:39:12 10° N
Cosmos 2151 3.0 00:31:40 29° SSW 00:33:47 74° W 00:38:04 10° N
Cosmos 1869 3.3 00:30:50 10° NNW 00:34:52 79° W 00:36:26 36° S
Cosmos 2082 Rocket 3.6 00:30:52 10° NW 00:35:31 26° WSW 00:38:31 17° SW
Cosmos 1833 Rocket 4.3 00:31:25 10° NW 00:35:43 23° WSW 00:38:42 15° SW
Cosmos 2297 4.1 00:30:39 11° SW 00:36:11 62° WNW 00:41:53 10° NNE
CZ-2C R/B 3.8 00:34:12 10° N 00:39:14 39° WNW 00:44:07 10° SW
H-2A R/B 2.1 00:37:33 31° SE 00:39:21 67° ENE 00:43:27 10° N
Cosmos 1455 4.1 00:39:19 10° NW 00:42:11 21° W 00:43:57 15° WSW
Orbus 7S? 2.5 00:49:19 35° WSW 00:50:13 73° NNW 00:53:13 10° NE
Timation 2 Rocket 4.1 00:46:17 10° NNW 00:53:00 80° WSW 00:57:20 25° SSE
CZ-4B R/B 3.6 00:47:53 10° NNE 00:53:11 69° ESE 00:55:50 30° S
Cosmos 1943 Rocket 2.9 00:53:13 26° SSE 00:55:30 38° ESE 01:00:37 10° NE
In-Cosmos 22 Rocket 4.4 00:52:56 28° SSE 00:55:32 55° E 01:00:51 10° NNE
RESURS DK-1 4.0 00:54:07 10° WSW 00:57:52 32° NW 01:01:37 10° NNE
deb Chang Zheng 4 4.1 00:57:08 10° NNE 01:01:24 47° E 01:03:04 31° SSE
Cosmos 2098 Rocket 4.3 00:59:08 10° N 01:06:39 77° E 01:10:52 25° SSE
Cosmos 1892 3.3 01:07:30 33° SE 01:08:37 44° E 01:12:14 10° NNE
COSMOS 2487 3.3 01:06:15 10° NW 01:09:30 35° WSW 01:10:07 32° SW
Cosmos 2228 Rocket 4.5 01:09:27 10° NNW 01:13:16 28° W 01:15:13 20° SW
Cosmos 1140 Rocket 3.6 01:15:08 25° SSW 01:18:08 73° WNW 01:23:17 10° NNE
Cosmos 614 Rocket 4.1 01:16:37 24° SW 01:19:45 68° WNW 01:24:53 10° NNE
Meteor 2-8 Rocket 4.4 01:16:16 27° S 01:19:48 88° E 01:25:59 10° N
deb Kosmos-1763 4.1 01:17:31 10° NNW 01:21:17 69° WSW 01:22:22 43° S
CZ-4C R/B 4.4 01:21:19 27° SW 01:22:26 32° W 01:25:51 10° NNW
SL-8 R/B 3.6 01:18:08 10° W 01:22:57 72° SSW 01:27:46 10° ESE
SL-24 R/B 4.3 01:21:10 10° NNE 01:25:40 77° ESE 01:28:05 31° S
Sich 1 3.2 01:24:58 34° SSE 01:26:46 67° E 01:31:11 10° NNE
Cosmos 1741 Rocket 4.2 01:24:26 30° S 01:26:57 62° ESE 01:32:10 10° NNE
Cosmos 468 Rocket 4.1 01:22:11 10° NNW 01:27:20 70° ENE 01:30:41 22° SE
Cosmos 1805 Rocket 3.5 01:25:42 34° SSW 01:27:33 84° W 01:32:01 10° N
ADEOS Rocket 3.5 01:22:11 10° N 01:27:56 57° WNW 01:32:33 19° SW
CZ-4C R/B 4.3 01:32:05 20° SE 01:34:06 37° ENE 01:37:32 10° N
Cosmos 1954 Rocket 4.4 01:31:38 21° SW 01:35:00 56° WNW 01:40:07 10° NNE
OPS 8737 4.3 01:34:32 43° SW 01:35:33 85° SE 01:38:57 10° NE
BREEZE-M DEB (TANK) 2.8 01:35:01 10° W 01:40:19 - ESE 01:36:26 29° W
Cosmos 1862 Rocket 4.3 01:33:09 10° N 01:37:32 49° ENE 01:40:10 22° SE
COSMOS 2455 3.5 01:34:07 10° NNW 01:40:02 54° NE 01:45:56 10° SE
Cosmos 2208 Rocket 4.0 01:35:55 10° NNW 01:41:20 79° WSW 01:44:26 26° SSE
Cosmos 1933 3.6 01:41:15 10° NNW 01:45:11 53° W 01:46:34 35° SSW
Meteor 1-26 Rocket 4.2 01:40:32 10° NNW 01:46:17 86° W 01:49:34 26° S
Cosmos 1707 Rocket 3.9 01:43:57 10° NNW 01:48:13 51° W 01:49:57 31° SSW
Cosmos 1818 3.5 01:42:44 10° NW 01:48:13 74° SW 01:51:56 21° SSE
Lacrosse 4 Rocket 2.7 01:48:03 24° SSE 01:49:32 30° ESE 01:53:26 10° NE
Cosmos 1782 3.8 01:47:01 10° N 01:50:49 41° ENE 01:53:08 20° SE
Cosmos 304 Rocket 4.5 01:47:28 10° NW 01:51:53 38° WSW 01:53:37 28° SSW
USA 234 3.5 01:45:55 10° ENE 01:52:17 51° SE 01:56:09 24° SSW
Cosmos 2181 Rocket 4.3 01:48:33 23° SSW 01:52:29 60° WNW 01:58:39 10° N
Cosmos 1633 Rocket 3.0 01:50:31 33° S 01:52:30 90° ESE 01:56:58 10° N
Cosmos 1408 3.1 01:51:12 32° SSE 01:52:32 51° E 01:56:09 10° NNE
Mayak 0.8 01:52:08 10° NNW 01:55:13 20° WNW 01:58:04 11° WSW
Cosmos 1470 Rocket 3.8 02:00:32 28° SSE 02:02:44 63° E 02:07:10 10° NNE
Lacrosse 5 3.2 01:59:18 10° NW 02:04:07 41° NNE 02:08:55 10° E
Cosmos 2369 Rocket 2.6 02:00:13 19° SW 02:04:17 57° WNW 02:09:52 10° NNE
Cosmos 2227 Rocket 4.2 02:01:03 10° NNW 02:05:53 27° NE 02:10:42 10° ESE
Cosmos 2218 Rocket 4.3 02:00:42 10° NNW 02:06:40 52° W 02:10:16 24° SSW
MOS 1 Rocket 3.4 02:03:26 10° N 02:08:24 76° WNW 02:10:53 28° SSW
Meteor 2-15 4.4 02:04:40 25° S 02:08:24 84° E 02:14:30 10° NNE
Cosmos 1825 2.2 02:08:25 33° S 02:09:57 71° E 02:13:44 10° NNE
ATLAS 5 CENTAUR R/B 4.4 02:07:13 10° WNW 02:11:01 22° NNW 02:15:10 10° NNE
H-2A R/B 4.1 02:14:39 12° WSW 02:15:51 13° W 02:17:55 10° WNW
Cosmos 1606 2.6 02:12:03 10° NNW 02:15:53 79° W 02:17:35 32° S
Cosmos 1656 Rocket 3.8 02:13:56 25° S 02:17:14 69° ESE 02:22:51 10° NNE
Cosmos 1666 Rocket 4.3 02:17:10 24° SW 02:19:20 41° WNW 02:23:27 10° N
Meteor 2-3 Rocket 3.9 02:18:29 24° SSW 02:22:03 71° WNW 02:27:53 10° N
Cosmos 1933 Rocket 3.5 02:22:18 28° S 02:24:34 85° ESE 02:29:00 10° N
Cosmos 1763 Rocket 3.5 02:19:50 10° NNW 02:24:51 62° WSW 02:27:55 23° S
BREEZE-M DEB (TANK) 3.9 02:14:02 10° WSW 02:25:23 65° S 02:29:11 10° E
Cosmos 1689 Rocket 2.5 02:25:19 26° SE 02:26:48 59° ENE 02:29:49 10° N
Cosmos 292 Rocket 3.7 02:22:02 10° NNW 02:26:53 75° WSW 02:30:09 21° SSE
CZ-4B R/B 1.2 02:26:18 31° SSE 02:27:38 78° ENE 02:30:45 10° N
Cosmos 540 Rocket 3.7 02:27:01 10° NNW 02:32:10 69° ENE 02:37:14 10° SSE
Cosmos 1862 4.3 02:30:19 18° SSE 02:32:47 39° E 02:36:30 10° NNE
CZ-2D R/B 3.4 02:29:46 10° NNE 02:34:31 32° E 02:38:59 11° SSE
ARIANE 5 R/B 4.5 02:34:49 10° NE 02:38:31 20° E 02:42:12 10° SE
CRYOSAT 2 4.5 02:35:54 24° SSW 02:38:47 62° W 02:43:39 10° N
Cosmos 1943 Rocket 3.1 02:34:43 14° WSW 02:39:12 42° NW 02:44:33 10° NNE
Spot 2 4.1 02:37:26 10° NNE 02:41:47 69° ESE 02:44:16 23° S
Nadezhda 3 Rocket 4.1 02:45:31 20° SSW 02:50:03 73° W 02:56:24 10° N
Cosmos 1934 Rocket 4.0 02:46:07 10° N 02:52:31 87° E 02:58:18 12° S
Resurs 1-4 Rocket 2.9 02:47:33 10° NNE 02:52:40 45° E 02:57:10 13° S
Cosmos 405 4.4 02:52:52 18° WSW 02:54:38 27° WNW 02:57:44 10° N
GP-B 3.3 02:50:24 10° N 02:54:48 62° W 02:57:36 22° SSW
Cosmos 1812 4.5 02:52:21 10° N 02:55:49 30° ENE 02:59:16 10° SE
NOSS 3-1 (C) 4.1 02:49:01 10° NW 02:56:24 82° NE 03:04:47 10° SE
Cosmos 841 Rocket 3.8 02:53:06 10° NNW 02:58:05 47° WSW 03:01:38 18° S
SL-16 R/B 2.6 02:52:01 10° SSE 02:58:12 87° ENE 03:04:24 10° NNW
MOZ.5/SAFIR/RUBIN 5/SL-8 4.4 02:54:42 10° SSE 02:59:15 55° ENE 03:03:49 10° N
Cosmos 1869 Rocket 3.8 02:57:53 18° S 03:01:04 68° E 03:05:26 10° NNE
SL-08 R/B 3.3 02:59:48 11° SSE 03:04:20 87° ENE 03:09:01 10° NNW
H-2A R/B 3.2 03:00:43 10° NNE 03:04:31 42° E 03:07:35 14° SSE
SL-8 R/B 4.4 03:00:50 10° W 03:05:07 32° SSW 03:09:22 10° SSE
Cosmos 2221 Rocket 3.6 03:04:12 10° N 03:08:40 86° ENE 03:12:50 12° S
Genesis I 3.4 03:05:26 10° NW 03:09:27 53° SW 03:13:24 10° SSE
Cosmos 1437 Rocket 3.0 03:06:37 18° S 03:09:34 75° E 03:13:41 10° NNE
Okean 1-7 3.1 03:07:20 10° NNW 03:11:43 67° W 03:15:10 16° S
Cosmos 1633 4.5 03:09:29 10° SSE 03:12:31 25° E 03:15:34 10° NNE
Cosmos 1703 Rocket 4.0 03:12:48 10° NNW 03:17:00 44° W 03:19:58 17° SSW
Cosmos 2219 3.4 03:14:10 10° NW 03:19:41 54° WSW 03:25:08 10° S
UNK 3.8 03:16:03 13° S 03:20:12 65° WSW 03:24:51 10° NNW
Cosmos 1867 3.9 03:18:38 14° SW 03:23:17 65° NW 03:28:45 10° NE
COSMOS 2455 3.5 03:20:24 10° NW 03:25:47 35° WSW 03:30:56 11° S
Lacrosse 4 Rocket 2.5 03:24:21 12° WSW 03:28:07 41° NW 03:32:25 10° NNE
AQUA 3.8 03:26:01 10° NNE 03:30:48 80° WNW 03:34:56 14° SSW
USA 229 DEB 4.1 03:26:15 10° NW 03:33:05 48° WSW 03:40:05 10° SSE
USA 229 4.1 03:26:22 10° NW 03:33:12 48° WSW 03:40:13 10° SSE
IRS-1D 3.6 03:28:29 10° NNE 03:33:39 78° ESE 03:38:27 11° S
NOSS 3-1 (A) 4.1 03:26:34 10° NW 03:34:01 87° SW 03:42:28 10° SE
BREEZE-M DEB (TANK) 3.1 03:31:49 10° W 03:35:18 85° SSW 03:41:07 10° ESE
USA 234 3.6 03:28:58 10° NE 03:35:28 69° NNW 03:41:59 10° WSW
ATLAS CENTAUR R/B 1.9 03:37:00 14° SSW 03:40:05 46° ESE 03:44:00 10° NE
Cosmos 2297 Rocket 2.2 03:35:48 10° NNW 03:41:30 85° WSW 03:47:09 10° SSE
Cosmos 1727 Rocket 4.1 03:37:48 10° S 03:44:02 85° E 03:50:22 10° N
Cosmos 1733 Rocket 3.5 03:41:37 10° S 03:45:51 60° E 03:50:10 10° NNE
Cosmos 1354 Rocket 4.0 03:41:58 13° SSW 03:46:42 83° WNW 03:51:59 10° NNE
Cosmos 44 3.3 03:42:47 13° SW 03:46:59 86° NW 03:52:06 10° NE
Meteor 1-27 Rocket 4.4 03:41:45 10° NNW 03:47:10 41° W 03:52:38 10° SSW
Lacrosse 5 1.8 03:42:22 10° WNW 03:47:27 79° SW 03:52:31 10° SE
Cosmos 2369 Rocket 4.5 03:46:13 10° WNW 03:49:36 16° NNW 03:52:59 10° N
Cosmos 2227 Rocket 2.2 03:44:48 10° NNW 03:50:28 68° WSW 03:56:05 10° SSE
ASTEX 1 4.4 03:45:50 10° SSE 03:50:38 49° ENE 03:55:27 10° N
Cosmos 44 Rocket 3.5 03:46:40 12° SSW 03:51:06 69° SE 03:56:08 10° NE
IRS-1C 4.3 03:47:58 10° N 03:53:18 67° WNW 03:58:34 10° SSW
Cosmos 1674 Rocket 3.7 03:49:24 10° N 03:53:44 74° E 03:58:03 10° SSE
Cosmos 968 Rocket 3.8 03:48:45 10° SSW 03:53:59 70° ESE 03:59:14 10° NNE
ADEOS II 3.3 03:51:35 10° NNE 03:56:33 40° E 04:01:28 10° SSE
Meteor 1-4 Rocket 3.2 03:54:39 12° SW 03:57:49 44° WNW 04:01:26 10° N
BREEZE M DEB (TANK) 1.5 03:57:47 10° W 04:02:02 81° SSW 04:04:12 10° ESE
Cosmos 1656 4.1 03:58:24 10° SSW 04:04:00 62° ESE 04:09:35 10° NE
CZ-2D R/B 3.9 03:59:51 10° NNE 04:04:05 63° E 04:08:10 10° S
Cosmos 389 Rocket 2.5 04:01:24 10° SSW 04:05:02 81° WNW 04:08:43 10° N
Helios 1A Rocket 3.5 04:02:50 10° NNE 04:06:49 54° ESE 04:10:47 10° S
Okean 1 3.7 04:03:42 10° N 04:07:41 66° ENE 04:11:37 10° SSE
UNKNOWN OBJECT B 3.0 04:08:56 10° NNE 04:12:57 75° ESE 04:17:00 10° S
Cosmos 1503 Rocket 4.5 04:09:22 10° SW 04:14:22 49° WNW 04:19:26 10° NNE
CZ-2D R/B 2.8 04:09:42 10° N 04:14:42 43° WNW 04:19:44 10° SW
SL-24 R/B - RUBIN 2 3.7 04:13:44 10° NW 04:17:58 51° WSW 04:22:19 10° SSE
ARIANE 5 R/B 2.7 04:13:07 10° N 04:18:04 61° WNW 04:22:59 10° SSW
Cosmos 1802 Rocket 4.1 04:14:07 10° N 04:20:25 89° W 04:26:36 10° S
SS 2 4.5 04:21:00 10° NW 04:23:53 61° SW 04:26:54 10° SSE
SAR-Lupe-2 3.9 04:21:04 10° S 04:24:32 47° W 04:28:01 10° NNW
Meteor 1-20 Rocket 4.3 04:18:58 10° S 04:24:39 89° W 04:30:30 10° NNE
Cosmos 2082 4.0 04:22:17 10° NW 04:27:42 48° WSW 04:33:03 10° S
